User: anonymous   Login
Location: ???????
(55.7027°N, 37.3832°E)
Time: 23:34:45
(UTC+00:00)
Language:

Cosmos 1378 Rocket - Orbit

View from above orbital plane
View from above orbital plane
View from above satellite
View from above satellite

Ground track
Ground track

The orbit is defined by the following mean orbital elements,

1 13272U          26159.47085845 +.00000000 +00000-0 +52815-4 0 00007
2 13272  82.5094 295.4056 0019233  81.3860 278.9536 14.87250316    07
Epoch (UTC): 08 June 2026 11:18:02
Eccentricity: 0.0019233
inclination: 82.5094°
perigee height: 593 km
apogee height: 620 km
right ascension of ascending node: 295.4056°
argument of perigee: 81.3860°
revolutions per day: 14.87250316
mean anomaly at epoch: 278.9536°

The dashed part of the orbit path shows where the satellite is in the earth's shadow,  

DLR